Weather History for North Platte, NE

Change the Weather History Date:

Tuesday, January 21, 2014

  Actual Average Record
Temperature  
Mean Temperature 30 °F 25 °F  
Max Temperature 57 °F 39 °F 71 °F (1950)
Min Temperature 3 °F 11 °F -22 °F (1930)
Degree Days  
Heating Degree Days 35 40  
Month to date heating degree days 784 845  
Since 1 July heating degree days 3536 3625  
Cooling Degree Days 0 0  
Month to date cooling degree days 0 0  
Year to date cooling degree days 0 0  
Moisture  
Dew Point 11 °F    
Average Humidity 51    
Maximum Humidity 86    
Minimum Humidity 16    
Precipitation  
Precipitation 0.00 in 0.01 in 0.31 in (1917)
Month to date precipitation 0.07 0.23  
Year to date precipitation 0.07 0.23  
Snow  
Snow 0.00 in 0.20 in 6.80 in (2007)
Month to date snowfall 0.8 3.3  
Since 1 July snowfall 7.5 14.1  
Snow Depth 0.00 in    
Sea Level Pressure  
Sea Level Pressure 30.27 in    
Wind  
Wind Speed 10 mph (NW)    
Max Wind Speed 25 mph    
Max Gust Speed 33 mph    
Visibility 10 miles    
Events      
T = Trace of Precipitation, MM = Missing Value Source: NWS Daily Summary

Daily Weather History Graph

Daily Weather History Graph

Search for Another Location

Airport:

Trip Planner

Search our weather history database for the weather conditions in past years. The results will help you decide how hot, cold, wet, or windy it might be!

Date:

Astronomy

Jan. 21, 2014 Rise Set
Actual Time 8:02 AM CST 5:46 PM CST
Civil Twilight 7:32 AM CST 6:15 PM CST
Nautical Twilight 6:58 AM CST 6:49 PM CST
Astronomical Twilight 6:26 AM CST 7:22 PM CST
Moon 11:24 PM CST (1/21) 10:29 AM CST (1/21)
Length of Visible Light 10h 43m
Length of Day
9h 43m
Waning Gibbous, 74% of the Moon is Illuminated
Jan 21
Waning Gibbous
Jan 23
Last Quarter
Jan 30
New
Feb 6
First Quarter
Feb 14
Full

Hourly Weather History & Observations

Time (CST) Temp. Windchill Dew Point Humidity Pressure Visibility Wind Dir Wind Speed Gust Speed Precip Events Conditions
12:36 AM 12.2 °F - 6.8 °F 79% 30.40 in 10.0 mi Calm Calm - N/A   Partly Cloudy
12:53 AM 10.0 °F - 5.0 °F 80% 30.49 in 10.0 mi Calm Calm - N/A   Partly Cloudy
1:10 AM 10.4 °F 2.2 °F 6.8 °F 85% 30.40 in 10.0 mi West 4.6 mph - N/A   Mostly Cloudy
1:53 AM 9.0 °F - 5.0 °F 84% 30.47 in 10.0 mi Calm Calm - N/A   Mostly Cloudy
2:08 AM 8.6 °F - 5.0 °F 85% 30.37 in 10.0 mi Calm Calm - N/A   Scattered Clouds
2:53 AM 7.0 °F -1.7 °F 1.9 °F 80% 30.48 in 10.0 mi East 4.6 mph - N/A   Clear
3:53 AM 5.0 °F -6.9 °F -0.0 °F 80% 30.48 in 10.0 mi ESE 6.9 mph - N/A   Clear
4:53 AM 3.9 °F -6.9 °F -0.0 °F 84% 30.46 in 10.0 mi East 5.8 mph - N/A   Clear
5:53 AM 3.9 °F -5.3 °F -0.9 °F 80% 30.45 in 10.0 mi ESE 4.6 mph - N/A   Clear
6:53 AM 3.0 °F -8.0 °F -0.9 °F 84% 30.40 in 10.0 mi East 5.8 mph - N/A   Clear
7:53 AM 8.1 °F 1.4 °F 3.0 °F 80% 30.38 in 10.0 mi SSE 3.5 mph - N/A   Clear
8:53 AM 9.0 °F -4.2 °F 3.9 °F 80% 30.34 in 10.0 mi South 9.2 mph - N/A   Clear
9:53 AM 14.0 °F 3.9 °F 8.1 °F 77% 30.32 in 10.0 mi South 6.9 mph - N/A   Clear
10:53 AM 21.0 °F 12.4 °F 12.0 °F 68% 30.28 in 10.0 mi SSW 6.9 mph - N/A   Clear
11:53 AM 30.9 °F 21.7 °F 15.1 °F 52% 30.21 in 10.0 mi SW 11.5 mph - N/A   Clear
12:53 PM 37.0 °F 29.8 °F 17.1 °F 44% 30.15 in 10.0 mi WSW 10.4 mph - N/A   Clear
1:53 PM 46.9 °F - 18.0 °F 32% 30.07 in 10.0 mi West 10.4 mph - N/A   Clear
2:53 PM 53.1 °F - 18.0 °F 25% 30.03 in 10.0 mi West 11.5 mph - N/A   Clear
3:53 PM 55.9 °F - 10.9 °F 17% 30.05 in 10.0 mi North 21.9 mph 33.4 mph N/A   Scattered Clouds
4:53 PM 54.0 °F - 10.9 °F 18% 30.07 in 10.0 mi NNW 13.8 mph 29.9 mph N/A   Overcast
5:53 PM 50.0 °F - 18.0 °F 28% 30.10 in 10.0 mi NNW 15.0 mph - N/A   Overcast
6:53 PM 46.0 °F 38.8 °F 21.0 °F 37% 30.13 in 10.0 mi North 18.4 mph 23.0 mph N/A   Overcast
7:53 PM 42.1 °F 34.9 °F 21.9 °F 45% 30.16 in 10.0 mi NNW 13.8 mph - N/A   Mostly Cloudy
8:53 PM 39.9 °F 33.9 °F 23.0 °F 51% 30.17 in 10.0 mi NNW 9.2 mph - N/A   Overcast
9:53 PM 39.0 °F 29.3 °F 19.0 °F 45% 30.18 in 10.0 mi NNW 19.6 mph 26.5 mph N/A   Overcast
10:53 PM 36.0 °F 29.0 °F 19.9 °F 52% 30.18 in 10.0 mi NNW 9.2 mph - N/A   Partly Cloudy
11:53 PM 35.1 °F 27.9 °F 21.0 °F 57% 30.17 in 10.0 mi NNW 9.2 mph - N/A   Clear